Regional Weather Roundup
Issued by NWS

Home | Current Version | Previous Version | Text Only | Print | Product List | Glossary On
Versions: 1 2 3 4 5 6 7 8 9 10 11 12 13 14 15 16 17 18 19 20 21 22 23 24 25 26 27 28 29 30 31 32 33 34 35 36 37 38 39 40 41 42 43 44 45 46 47 48 49 50
000
ASUS44 KOUN 270210
RWROK

WEATHER ROUNDUP FOR OKLAHOMA
NATIONAL WEATHER SERVICE NORMAN OK
800 PM CST SUN FEB 26 2017

NOTE: "FAIR" INDICATES FEW OR NO CLOUDS BELOW 12,000 FEET WITH NO
      SIGNIFICANT WEATHER AND/OR OBSTRUCTIONS TO VISIBILITY.

OKZ001>007-009>012-014-015-017-270300-
NORTHWEST OKLAHOMA AND THE PANHANDLE

CITY           SKY/WX    TMP DP  RH WIND       PRES   REMARKS
GAGE           CLEAR     44  23  43 E10       29.90R
GUYMON         PTCLDY    47   9  21 E13       29.84R
ENID/WOODRING  PTCLDY    41  34  75 N8        29.95R
$$

OKZ016-021>023-033>039-044-045-270300-
SOUTHWEST OKLAHOMA

CITY           SKY/WX    TMP DP  RH WIND       PRES   REMARKS
LAWTON/FT SILL MOCLDY    51  37  59 NE6       29.89R
FREDERICK      CLEAR     50  36  58 NE10      29.86R
CLINTON        CLEAR     48  32  53 E10       29.92R
HOBART         CLEAR     46  36  68 E7        29.91R
ALTUS AFB      CLEAR     42  33  70 NE7       29.90R
$$

OKZ018>020-024>031-270300-
CENTRAL OKLAHOMA

CITY           SKY/WX    TMP DP  RH WIND       PRES   REMARKS
OKLAHOMA CITY  MOCLDY    50  34  54 N7        29.92R
OKC/WILEY POST CLEAR     45  33  63 N8        29.94R
OKC/TINKER AFB MOCLDY    53  34  50 CALM      29.91R
STILLWATER     PTCLDY    43  31  62 N10       29.95R
GUTHRIE        PTCLDY    49  33  54 NE5       29.94R
$$

OKZ008-013-054>072-270300-
NORTHEAST OKLAHOMA

CITY           SKY/WX    TMP DP  RH WIND       PRES   REMARKS
TULSA          MOCLDY    52  36  54 CALM      29.95R
TULSA/JONES    MOCLDY    55  38  52 S6        29.96R
PONCA CITY     CLEAR     42  28  57 CALM      29.96R
BARTLESVILLE   CLEAR     38  28  67 CALM      30.00R
MUSKOGEE       CLOUDY    52  36  54 S7        29.99R
$$

OKZ032-040>043-046>053-073>077-270300-
SOUTH CENTRAL/SOUTHEAST OKLAHOMA

CITY           SKY/WX    TMP DP  RH WIND       PRES   REMARKS
ARDMORE/DWNTWN CLOUDY    55  48  76 CALM      29.90S
MCALESTER      CLOUDY    54  35  48 NE3       29.96R
$$





USA.gov is the U.S. government's official web portal to all federal, state and local government web resources and services.